Temp
80 82 82 78 79 81 79 82 78 83 83 89 92 94 97 99 96 97 97 94 95 95 94 94 93 94 95 96 96 96 92 91 89 90 90 90 90 90 90 89 89 88 88 88
73 80 81 77 79 81 81 83 84 86 86 96 98 100 98 98 100 97 98 97 96 95 94 92 91 91 92 93 93 94 92 90 91 90 90 89 89 89 89 88 88 86 86 87
66 77 77 71 78 80 82 85 86 80 87 95 93 94 95 98 100 100 102 101 98 97 94 93 93 93 93 93 93 91 90 91 90 89 88 88 89 88 87 87 86 83 83 86
69 72 59 78 88 87 83 85 88 88 90 91 93 96 97 98 97 98 101 103 103 101 99 97 96 95 95 95 92 91 89 90 90 89 88 88 87 86 86 86 82 80 82 82
64 67 72 77 79 80 80 78 80 83 85 84 86 88 89 97 98 98 99 100 100 101 99 98 97 95 93 93 91 91 90 90 90 89 88 87 86 84 86 82 78 78 77 76
68 64 60 70 69 74 76 70 73 74 77 78 81 83 92 86 89 91 92 93 96 102 99 97 94 93 90 90 90 89 91 90 89 88 87 86 86 84 80 78 77 75 74 78
66 66 62 64 69 73 65 66 70 73 73 74 75 85 80 83 85 88 90 92 95 98 98 95 93 92 89 90 89 91 92 89 87 87 86 86 81 79 76 73 71 71 72 75
67 66 56 68 70 65 64 69 70 71 73 73 75 78 80 83 85 87 89 92 96 96 94 92 90 89 88 87 89 89 88 87 86 86 87 82 79 75 73 71 70 71 70 69
58 56 64 68 65 68 71 68 70 71 74 75 76 78 80 82 84 88 89 91 96 96 90 89 88 89 86 84 86 86 86 84 83 83 83 80 76 72 70 71 72 72 72 75
62 62 64 67 70 71 71 71 73 75 75 77 74 74 72 79 85 87 88 90 93 93 88 86 88 88 86 85 85 85 79 78 79 79 76 76 77 75 73 75 75 76 78 79
59 64 66 68 68 70 71 73 73 75 76 73 67 65 65 71 77 83 86 89 92 91 88 87 86 83 87 87 85 78 77 77 76 74 70 66 62 69 79 80 79 84 82 83
59 63 64 64 68 71 70 70 72 73 73 71 67 63 64 66 74 76 86 89 90 89 87 80 80 82 86 86 83 81 80 80 77 73 70 68 67 63 50 51 48 49 53 74
57 63 64 67 69 72 70 71 73 74 75 71 66 64 63 63 72 70 86 88 87 86 84 80 78 78 83 85 85 83 81 78 76 75 76 75 74 74 69 60 47 45 46 49
64 62 59 64 65 70 71 73 73 76 77 76 71 65 64 64 68 72 75 83 86 85 81 79 79 78 82 86 84 82 82 66 86 85 85 83 82 82 81 78 75 73 50 55
65 67 68 70 70 70 72 74 73 74 75 75 75 68 66 64 65 69 72 77 77 79 80 80 78 78 84 87 86 84 85 87 87 86 83 78 85 86 86 84 81 75 69 58
65 67 68 66 67 68 70 71 72 73 74 74 74 71 70 68 66 69 73 76 77 76 77 77 79 81 85 86 84 86 86 70 77 80 80 87 88 87 86 83 80 77 77 73
61 61 64 64 66 67 69 72 73 73 73 73 73 73 71 70 67 67 68 75 77 76 78 79 78 79 83 86 88 87 85 80 73 85 88 88 88 87 84 81 80 78 77 73
65 66 67 67 66 66 68 71 73 73 72 73 72 72 71 71 66 66 68 72 76 75 76 78 79 80 83 86 86 87 85 82 86 89 89 87 86 85 84 83 81 77 79 70
59 59 62 64 67 67 68 68 70 71 72 73 72 70 71 70 70 68 69 68 75 73 74 77 67 76 83 80 83 90 88 88 89 88 88 76 84 85 84 84 84 82 79 74
56 59 61 60 66 67 66 68 68 69 71 71 71 70 69 70 72 71 70 67 69 78 78 75 78 82 82 78 72 91 89 89 88 87 86 85 85 84 84 74 83 82 79 77
49 54 56 56 60 65 66 67 67 66 68 69 67 67 68 70 72 72 70 67 71 70 76 67 77 83 81 80 81 92 90 88 88 86 83 85 84 84 84 83 82 81 80 80
49 48 54 57 59 63 66 68 68 67 66 67 68 68 68 68 71 73 75 72 79 61 74 77 78 71 79 68 86 91 90 88 87 86 84 86 84 83 82 82 82 82 82 81
48 49 51 57 63 64 67 67 68 68 66 66 67 67 67 71 76 75 76 81 81 66 81 85 72 61 60 77 88 90 89 87 87 86 85 85 84 84 83 82 83 82 81 80
47 49 51 55 59 64 63 65 67 67 67 67 67 68 69 71 73 79 82 69 63 65 76 82 70 58 57 84 86 89 89 87 87 87 87 67 86 86 84 83 82 83 82 76
50 49 50 49 51 52 56 63 67 68 68 68 68 68 67 72 73 74 75 76 61 66 76 61 55 56 73 84 88 88 89 89 89 88 87 86 87 86 85 84 83 82 82 81
52 48 47 50 50 52 51 55 57 58 56 58 59 60 61 62 66 69 70 66 73 68 76 82 79 76 81 85 88 88 88 89 87 88 86 87 87 87 86 85 84 82 82 81
61 48 47 49 48 50 48 46 45 46 47 51 56 57 57 58 59 60 58 66 67 71 75 80 82 75 83 85 86 87 88 88 79 88 88 88 87 87 87 85 84 83 83 82
MSLP
993.47 993.17 993.28 994.01 994.04 993.91 993.66 993.60 992.93 992.28 993.23 993.14 993.63 994.23 994.38 994.92 995.57 995.86 996.38 997.24 997.78 998.33 998.92 999.55 1000.15 1000.72 1001.41 1002.04 1002.65 1003.40 1004.21 1004.78 1005.20 1005.89 1006.40 1006.78 1007.36 1007.95 1008.42 1008.84 1009.27 1009.72 1009.97 1010.26
994.12 993.23 993.01 993.10 993.74 993.76 993.95 993.97 993.38 993.10 992.71 993.14 993.73 994.01 994.51 994.60 995.02 995.64 996.06 996.72 997.48 998.10 998.74 999.26 999.67 1000.14 1000.82 1001.49 1002.14 1002.84 1003.45 1004.12 1004.78 1005.38 1005.81 1006.29 1006.80 1007.26 1007.72 1008.15 1008.61 1009.04 1009.30 1009.54
994.18 993.60 993.42 992.99 992.88 993.35 993.72 994.04 993.81 993.17 993.63 993.82 994.23 994.59 994.91 994.80 994.93 995.28 995.64 996.06 996.90 997.50 997.89 998.43 998.93 999.51 999.95 1000.74 1001.65 1002.30 1003.00 1003.62 1004.29 1004.93 1005.41 1005.92 1006.34 1006.81 1007.25 1007.77 1008.27 1008.88 1009.23 1009.46
994.57 994.16 993.18 993.04 993.33 993.66 994.07 994.34 994.63 994.55 994.70 994.89 994.90 995.10 995.27 995.46 995.65 995.63 995.70 995.69 996.08 996.70 997.12 997.70 998.25 998.91 999.80 1000.36 1001.14 1001.82 1002.53 1003.11 1003.78 1004.45 1004.98 1005.64 1006.02 1006.51 1007.07 1007.51 1008.21 1008.92 1009.34 1009.89
994.79 994.27 994.59 994.32 994.90 995.09 995.01 995.69 996.64 996.09 996.42 996.84 996.94 996.90 996.29 995.93 995.92 996.00 996.01 996.12 996.38 996.46 996.90 997.04 997.38 998.26 999.21 999.99 1000.75 1001.36 1001.84 1002.58 1003.27 1003.97 1004.56 1005.29 1005.76 1006.15 1006.68 1007.49 1008.49 1009.22 1009.80 1010.30
995.72 994.70 995.26 996.18 998.14 998.32 997.83 997.80 999.34 999.44 999.02 998.66 998.42 997.01 996.24 997.13 997.08 996.66 996.70 996.68 996.64 996.29 996.49 996.76 997.43 998.26 998.95 999.61 1000.20 1000.80 1001.38 1002.17 1003.02 1003.77 1004.41 1005.18 1005.58 1006.09 1007.08 1008.07 1008.88 1009.67 1010.28 1010.70
996.59 996.08 998.25 1000.24 1000.00 999.90 999.52 1000.81 1001.02 1000.93 1000.64 1000.15 999.45 998.03 998.31 998.25 997.68 997.35 996.88 996.62 996.48 996.34 996.37 996.81 997.53 998.08 998.76 999.54 1000.10 1000.65 1001.36 1002.29 1003.13 1003.86 1004.50 1005.12 1005.82 1006.63 1007.63 1008.54 1009.52 1010.16 1010.81 1011.52
998.00 997.64 1000.16 1001.52 1001.09 1001.07 1002.33 1002.55 1002.40 1002.00 1001.66 1001.08 1000.61 999.89 999.16 998.62 998.14 997.55 996.79 996.37 996.11 996.16 996.43 996.98 997.72 998.22 998.64 999.47 1000.12 1000.89 1001.71 1002.56 1003.36 1004.01 1004.56 1005.31 1006.02 1007.22 1008.23 1009.01 1009.84 1010.50 1011.25 1012.22
1001.46 1001.74 1003.03 1003.28 1003.63 1003.97 1003.87 1003.61 1003.27 1002.79 1002.25 1001.80 1001.16 1000.36 999.71 998.80 998.00 997.10 996.52 996.22 995.84 995.94 996.60 997.30 997.88 998.39 998.95 999.76 1000.37 1001.12 1002.01 1002.86 1003.79 1004.50 1005.00 1005.55 1006.54 1007.67 1008.63 1009.39 1010.04 1010.73 1011.62 1012.17
1002.45 1003.88 1004.04 1004.41 1004.72 1004.67 1004.53 1004.20 1003.85 1003.40 1002.72 1002.24 1001.98 1001.57 1001.06 999.62 998.15 997.26 996.57 996.16 996.06 996.16 996.42 997.46 997.93 998.58 999.30 1000.10 1001.00 1001.71 1002.53 1003.38 1004.07 1004.69 1005.32 1006.29 1007.37 1008.26 1008.76 1009.24 1009.92 1010.63 1011.05 1011.68
1004.09 1004.50 1004.80 1004.98 1005.40 1005.26 1004.97 1004.66 1004.27 1003.84 1003.37 1003.27 1003.33 1002.72 1002.02 1000.48 999.12 997.90 996.96 996.48 996.16 996.35 996.49 997.37 998.14 999.13 999.70 1000.44 1001.37 1002.30 1003.09 1003.82 1004.58 1005.29 1006.16 1007.26 1008.50 1009.12 1009.02 1009.27 1009.73 1009.76 1010.79 1011.27
1004.44 1005.98 1005.66 1005.81 1005.97 1005.66 1005.27 1004.85 1004.47 1004.05 1003.58 1003.72 1003.70 1003.36 1002.46 1001.14 999.69 998.95 997.23 996.79 996.48 996.64 997.27 998.11 998.93 999.39 999.98 1000.88 1001.66 1002.22 1002.83 1003.74 1004.55 1005.66 1006.84 1007.85 1008.78 1009.97 1010.65 1010.78 1010.57 1010.78 1011.12 1011.39
1007.30 1007.48 1007.20 1006.71 1006.31 1005.69 1005.50 1005.07 1004.62 1004.18 1003.75 1003.63 1004.00 1003.84 1003.26 1002.06 1000.32 999.61 997.83 997.46 997.24 997.49 998.24 998.87 999.40 1000.02 1000.50 1001.10 1001.59 1002.04 1002.50 1003.78 1004.83 1005.67 1006.60 1007.44 1008.39 1009.14 1010.31 1011.94 1011.80 1012.17 1012.53 1012.88
1007.97 1007.86 1007.21 1006.81 1006.26 1006.09 1005.65 1005.02 1004.49 1004.05 1003.71 1003.63 1003.81 1003.95 1003.58 1002.70 1001.46 1000.36 999.52 998.48 998.11 998.29 998.91 999.48 999.86 1000.34 1000.77 1001.04 1001.55 1002.28 1002.94 1003.85 1004.20 1005.04 1005.84 1006.60 1007.36 1008.24 1009.31 1010.36 1011.43 1012.95 1014.05 1014.48
1007.72 1007.69 1007.15 1006.58 1006.24 1005.90 1005.62 1005.01 1004.42 1003.87 1003.74 1003.63 1003.64 1003.82 1003.58 1002.78 1001.98 1001.01 1000.19 999.58 999.35 999.27 999.43 999.80 1000.15 1000.55 1000.85 1001.12 1001.59 1002.26 1003.00 1003.52 1004.12 1005.02 1005.92 1006.50 1007.04 1007.80 1008.55 1009.45 1010.65 1012.31 1014.05 1015.32
1007.60 1007.30 1006.98 1006.60 1006.02 1005.72 1005.39 1004.92 1004.43 1004.03 1003.80 1003.70 1003.53 1003.60 1003.40 1003.12 1002.56 1001.38 1000.64 1000.24 999.89 999.82 1000.00 1000.11 1000.52 1000.68 1000.79 1001.26 1001.88 1002.47 1003.16 1003.72 1004.43 1005.29 1005.81 1005.87 1006.60 1007.19 1008.14 1009.11 1010.30 1011.62 1012.72 1014.11
1007.32 1006.58 1006.39 1006.13 1005.75 1005.35 1005.02 1004.75 1004.44 1004.12 1003.97 1003.79 1003.77 1003.76 1003.75 1003.11 1003.01 1002.06 1001.34 1000.66 1000.28 1000.40 1000.47 1000.80 1000.94 1001.02 1001.04 1001.28 1001.67 1002.33 1003.38 1004.28 1004.56 1005.04 1005.30 1005.78 1006.28 1006.91 1007.99 1009.21 1009.91 1010.95 1012.04 1013.37
1007.36 1006.68 1006.19 1005.88 1005.56 1005.22 1004.87 1004.60 1004.32 1004.16 1004.01 1004.01 1004.13 1003.98 1003.70 1003.32 1003.16 1002.70 1002.16 1001.44 1000.83 1000.78 1000.94 1001.12 1001.30 1001.24 1001.27 1001.42 1001.79 1002.35 1003.24 1004.02 1004.29 1004.57 1005.16 1005.91 1006.49 1007.20 1007.94 1008.84 1009.79 1010.80 1011.58 1013.42
1007.86 1006.73 1006.04 1005.46 1004.80 1004.74 1004.62 1004.42 1004.43 1004.33 1004.23 1004.09 1003.99 1003.90 1003.81 1003.71 1003.39 1003.02 1002.30 1002.00 1001.16 1001.04 1001.14 1001.32 1001.71 1001.64 1001.56 1001.70 1001.73 1001.98 1002.71 1003.44 1003.88 1004.53 1005.11 1005.84 1006.55 1007.08 1007.62 1008.24 1008.91 1009.89 1011.22 1012.63
1007.78 1006.64 1005.40 1004.86 1004.40 1004.26 1004.27 1004.24 1004.33 1004.31 1004.22 1004.17 1004.06 1003.94 1003.74 1003.55 1003.32 1002.87 1002.50 1002.28 1001.82 1001.12 1001.14 1001.48 1001.70 1001.55 1001.88 1002.43 1002.42 1002.00 1002.71 1003.16 1003.62 1004.41 1005.03 1005.78 1006.26 1006.86 1007.50 1008.22 1008.86 1009.78 1010.89 1011.82
1008.40 1006.87 1005.74 1004.91 1004.26 1004.14 1004.22 1004.16 1003.95 1003.90 1003.92 1003.96 1003.90 1003.76 1003.46 1003.29 1003.15 1002.93 1002.62 1002.03 1001.86 1001.27 1001.43 1001.57 1001.78 1001.63 1002.06 1002.47 1002.62 1002.11 1002.60 1003.06 1003.63 1004.22 1005.20 1005.38 1006.17 1006.66 1007.35 1008.13 1008.86 1009.60 1010.37 1011.09
1008.54 1007.64 1006.15 1005.25 1004.58 1004.04 1003.87 1003.64 1003.48 1003.47 1003.52 1003.51 1003.33 1003.17 1003.07 1002.80 1002.48 1002.04 1001.64 1001.68 1001.13 1001.40 1001.16 1001.42 1001.61 1001.98 1001.86 1002.73 1002.28 1001.94 1002.42 1002.92 1003.40 1004.05 1004.79 1005.11 1005.88 1006.42 1007.16 1007.89 1008.50 1009.20 1009.83 1010.60
1008.87 1007.94 1006.76 1005.35 1004.27 1003.84 1003.59 1003.38 1003.18 1002.94 1002.74 1002.82 1002.78 1002.60 1002.41 1002.01 1001.54 1001.20 1000.74 1000.43 1000.72 1001.05 1000.61 1000.35 1000.96 1001.93 1002.59 1002.42 1001.80 1001.64 1002.09 1002.80 1003.12 1003.72 1004.31 1004.78 1005.49 1006.05 1006.69 1007.34 1007.98 1008.73 1009.43 1010.23
1009.36 1008.24 1007.16 1006.17 1004.91 1003.80 1003.35 1003.03 1002.81 1002.57 1002.32 1002.11 1002.17 1002.15 1001.93 1001.41 1001.10 1000.98 1000.70 1000.78 1000.97 1001.14 1001.22 1000.62 1001.49 1001.99 1002.78 1001.79 1001.50 1001.33 1001.69 1002.36 1002.88 1003.40 1003.84 1004.34 1004.82 1005.45 1006.28 1006.98 1007.62 1008.33 1009.02 1009.94
1009.68 1008.83 1007.76 1006.77 1005.85 1005.15 1004.48 1003.38 1002.48 1002.06 1001.89 1001.68 1001.44 1001.50 1001.64 1001.22 1000.56 1000.37 1000.32 1000.44 1000.57 1000.93 1000.85 1001.08 1001.25 1001.94 1001.99 1001.25 1000.89 1001.10 1001.22 1001.72 1002.24 1002.63 1003.12 1003.67 1004.02 1004.51 1005.32 1006.34 1007.13 1007.82 1008.51 1009.39
1009.81 1009.46 1008.66 1007.78 1007.02 1006.20 1005.34 1004.45 1003.86 1003.38 1003.02 1002.58 1002.30 1002.04 1001.67 1001.32 1000.80 1000.56 1000.50 1000.22 1000.24 1000.50 1000.74 1000.21 1000.49 1000.87 1000.55 1000.60 1000.49 1000.67 1000.74 1001.08 1001.88 1002.25 1002.41 1002.98 1003.48 1003.86 1004.50 1005.52 1006.40 1007.24 1007.82 1008.53
1009.52 1009.84 1009.39 1008.64 1008.11 1007.42 1007.09 1006.36 1006.01 1005.54 1004.77 1003.93 1003.28 1002.77 1002.24 1001.75 1001.34 1000.97 1000.76 1000.34 1000.58 1000.47 1000.67 999.80 999.12 999.88 999.82 999.94 1000.07 1000.19 1000.56 1000.82 1001.13 1001.45 1001.97 1002.07 1002.82 1003.25 1003.79 1004.74 1005.69 1006.65 1007.37 1007.96
Wind_Speed
21 22 24 25 25 27 25 27 27 23 24 22 16 9 6 6 2 2 5 10 12 13 14 15 15 15 16 17 15 15 15 17 16 14 13 13 12 11 11 11 11 12 12 12
21 14 17 28 28 28 26 25 27 25 23 20 21 14 9 10 6 3 2 4 11 14 15 17 17 17 17 16 15 15 16 16 14 12 12 11 10 10 10 10 11 10 12 13
18 22 14 22 24 27 24 27 25 23 16 10 14 12 14 13 11 8 5 5 9 13 16 15 17 15 18 16 15 14 14 13 12 11 11 10 9 9 9 9 8 8 8 10
17 17 24 9 18 20 22 22 23 22 16 17 16 10 10 6 7 9 9 9 7 9 11 14 15 15 14 14 14 14 13 12 11 11 10 9 9 8 8 7 6 7 9 9
16 19 12 18 5 7 16 11 6 8 2 3 3 8 15 15 13 12 11 10 7 4 7 8 14 14 14 13 13 13 13 12 11 11 10 10 10 10 9 8 9 9 9 9
11 21 21 9 6 5 5 10 5 2 3 4 5 10 9 10 10 11 11 10 9 7 4 6 9 13 14 14 14 13 12 12 11 11 10 11 11 11 8 9 10 8 9 12
9 14 10 8 4 2 15 4 4 4 4 6 7 10 16 16 14 13 14 13 10 8 6 6 10 13 13 12 12 11 11 12 12 11 12 12 13 12 11 11 11 11 12 11
7 16 10 13 5 4 9 6 8 7 7 10 13 16 17 17 16 15 15 13 10 9 6 7 10 12 13 13 12 13 14 14 14 14 12 13 15 13 13 12 12 12 13 10
9 9 10 14 13 8 8 7 9 10 10 10 13 15 16 16 15 13 12 10 8 9 10 10 12 12 15 14 15 16 16 16 15 15 14 14 15 14 11 12 12 11 11 10
3 9 12 12 12 10 11 11 10 11 12 13 15 17 18 17 13 10 9 7 9 12 14 13 13 14 15 16 16 17 16 15 14 14 13 13 11 11 11 11 12 11 11 12
10 8 8 7 12 10 13 11 12 12 13 16 17 17 16 17 10 9 7 6 9 12 14 17 15 16 16 17 17 15 15 15 14 12 12 10 9 5 10 10 8 11 11 11
7 8 7 8 12 9 13 14 13 15 15 15 15 17 18 17 8 6 5 6 10 12 14 15 16 15 16 16 16 17 17 13 11 11 10 10 10 10 20 13 16 15 11 8
4 9 9 12 10 7 15 14 13 14 13 14 11 12 16 15 10 7 7 7 10 13 15 16 15 15 15 16 16 15 16 15 11 12 11 12 11 10 11 9 19 18 16 15
11 13 14 12 13 13 13 13 12 12 10 11 12 11 14 13 13 8 5 2 8 12 14 14 16 16 15 15 15 16 16 13 12 11 11 11 11 11 11 11 12 9 14 9
9 8 13 15 14 13 13 13 13 11 11 12 12 11 13 15 16 11 8 3 6 9 13 14 14 15 14 15 16 17 15 11 11 11 11 9 11 12 11 12 12 11 10 9
16 15 15 15 17 15 14 12 11 11 11 12 12 13 14 13 14 12 6 4 6 8 9 11 13 14 14 15 15 14 11 12 12 11 9 11 11 11 11 11 11 11 11 12
19 17 14 14 14 16 15 13 11 11 11 11 12 13 13 13 11 13 12 6 0 5 7 10 12 12 14 15 15 11 11 12 12 11 11 11 10 11 11 10 10 10 11 12
19 20 19 18 16 17 17 16 13 12 12 12 11 12 11 12 11 12 10 11 1 5 8 9 10 12 14 14 12 12 12 11 11 12 11 11 11 10 11 12 12 12 11 12
19 21 21 21 18 16 16 16 15 14 12 12 11 11 12 11 11 10 8 9 6 4 3 9 10 9 12 12 11 11 12 14 13 11 11 11 11 11 11 11 12 12 12 14
20 18 19 16 19 14 14 15 14 14 12 11 11 11 12 11 11 11 8 7 9 6 8 9 13 10 10 11 9 11 13 13 13 11 11 11 11 11 11 11 12 12 13 14
18 18 14 11 12 12 11 11 12 12 12 12 12 12 12 12 11 10 10 6 8 2 4 11 9 8 8 11 10 11 12 12 12 11 12 12 11 12 12 12 12 12 12 13
16 15 14 9 9 11 11 11 10 10 10 11 12 12 12 13 13 12 11 10 7 13 7 7 8 8 8 13 12 11 12 12 12 11 12 11 12 12 12 13 12 12 12 12
16 14 13 14 8 10 10 10 11 12 13 12 13 13 12 10 9 9 8 8 8 8 8 9 11 13 14 13 13 12 13 13 12 12 13 12 13 13 13 13 13 12 12 12
16 16 16 16 17 9 8 11 13 14 15 15 13 13 12 10 10 11 10 6 7 7 11 8 13 16 13 13 14 12 12 13 13 13 13 14 13 13 13 13 13 12 13 13
17 17 16 14 11 9 13 12 10 10 10 12 12 10 10 11 12 8 7 8 8 10 11 10 16 16 12 13 12 13 13 13 13 13 14 14 14 14 14 14 14 14 13 14
13 12 12 15 12 12 11 11 7 4 4 5 2 2 3 4 7 7 9 8 9 10 12 11 11 12 13 15 13 13 12 12 13 13 14 14 15 14 15 15 15 15 14 15
14 15 13 13 12 11 11 13 12 11 13 9 5 6 6 6 4 2 2 4 5 6 10 11 11 12 13 13 14 12 12 12 13 14 14 14 15 15 15 15 15 15 14 14
Wind_Direction
228 195 201 198 214 211 217 222 223 218 216 237 192 209 184 154 137 38 123 174 191 199 196 191 195 199 199 204 201 201 203 211 219 222 222 225 226 220 216 214 214 221 218 216
222 210 222 202 205 212 211 221 237 236 242 216 240 233 235 243 228 237 270 198 196 205 202 206 202 201 200 201 201 200 206 212 216 217 219 220 220 217 212 210 208 207 214 212
214 211 202 210 200 212 211 219 222 226 221 190 215 231 241 247 264 280 271 192 206 208 210 211 211 203 201 199 195 201 207 210 210 209 212 210 204 208 210 206 197 189 206 204
208 201 215 196 198 209 213 219 226 237 237 251 249 253 283 292 257 258 260 269 236 216 215 218 208 202 205 196 196 199 200 202 198 196 201 193 181 182 188 186 161 157 171 165
210 207 198 200 174 217 211 179 27 302 145 252 290 290 258 246 250 263 281 289 299 281 244 218 201 191 191 192 189 196 195 193 186 187 183 178 173 163 171 140 131 149 148 142
205 199 205 72 25 358 309 178 49 16 256 296 302 229 229 4 331 309 294 290 288 282 249 183 188 178 181 187 189 191 183 175 171 172 164 168 153 138 112 127 129 122 120 131
209 209 98 352 346 251 203 111 12 339 327 310 279 301 326 316 307 300 293 289 286 261 243 186 174 173 175 174 180 169 152 145 148 150 153 142 120 119 117 110 108 112 108 116
240 217 129 344 126 286 38 38 9 349 345 314 300 297 300 300 293 291 290 289 268 223 187 157 163 166 154 155 142 136 136 136 141 146 134 135 125 121 120 117 116 114 111 105
348 68 90 60 76 78 43 35 11 354 341 325 312 308 306 300 297 285 286 286 243 195 154 149 159 158 143 135 137 133 136 135 134 136 133 127 128 124 120 126 127 128 126 136
199 119 95 73 60 54 34 24 9 1 351 348 341 335 325 312 293 307 291 258 214 172 146 147 145 137 131 134 138 137 133 136 135 129 120 120 127 130 132 139 138 143 146 140
93 121 142 74 34 19 16 13 7 1 5 8 354 342 331 315 310 296 266 227 186 174 148 144 133 134 140 140 140 134 130 128 122 111 104 98 71 96 146 139 152 148 151 152
75 61 348 46 354 350 0 357 357 351 357 8 358 345 338 326 336 300 238 188 167 148 139 131 138 137 138 141 143 140 132 130 124 122 121 119 115 92 47 49 58 55 55 144
30 355 341 325 337 338 340 339 347 338 350 354 3 344 342 331 324 310 274 171 154 148 140 140 135 135 143 146 145 137 126 129 128 133 138 140 138 135 120 71 66 51 52 67
329 324 313 321 316 324 319 323 327 329 353 356 4 354 342 344 345 6 5 116 133 139 138 142 139 136 143 140 132 130 128 139 143 142 144 142 144 141 138 140 138 122 48 83
305 297 301 310 309 312 316 314 320 330 347 352 357 4 344 352 344 339 353 86 131 141 142 142 139 135 142 138 136 136 143 146 137 138 137 145 147 149 150 148 144 126 126 103
305 297 291 285 291 292 295 301 307 321 329 336 343 351 349 350 335 338 9 25 136 144 142 139 141 142 142 139 140 139 139 115 128 139 153 153 152 153 149 149 142 153 149 139
301 299 302 294 280 278 278 281 285 295 307 318 332 335 333 343 344 348 346 351 135 143 147 155 144 144 144 151 147 139 140 144 145 153 161 158 155 152 147 149 157 152 154 153
300 295 292 280 271 273 271 272 277 285 294 307 315 316 317 329 337 335 335 329 36 161 163 158 155 149 154 152 151 146 147 155 167 165 155 158 156 151 155 155 157 164 152 147
316 301 290 278 263 257 259 261 266 275 282 287 289 299 307 305 314 320 318 320 292 152 146 162 136 173 158 159 168 160 158 165 166 158 164 144 157 161 165 167 165 157 154 157
326 315 303 277 260 239 250 255 261 267 271 278 283 278 283 292 298 308 305 275 280 339 138 135 170 170 168 165 231 163 167 170 166 164 159 167 167 168 167 167 163 160 159 165
334 324 317 283 250 235 243 259 262 257 263 264 265 270 277 280 278 270 281 258 268 185 221 140 209 167 173 163 217 175 173 174 171 169 163 179 162 171 165 165 169 164 165 173
339 332 324 294 265 247 245 250 259 264 263 268 269 264 266 269 272 272 256 259 239 182 196 179 190 211 182 172 206 185 179 182 180 172 177 173 171 169 169 170 171 173 170 174
333 344 341 337 270 262 264 261 259 262 266 263 266 266 260 264 266 273 264 218 234 209 225 187 177 143 159 192 210 192 187 188 187 179 183 175 178 174 173 176 173 175 172 173
347 347 355 355 352 329 283 269 263 260 264 270 263 261 260 255 243 236 247 227 222 209 229 206 152 153 184 207 210 204 190 194 193 187 187 179 180 177 178 175 178 177 174 172
350 351 347 350 353 347 314 305 280 247 262 258 263 258 263 256 253 255 251 245 237 217 221 204 152 164 192 221 210 209 204 199 198 191 189 188 189 184 179 179 183 179 175 179
355 0 349 358 354 3 357 1 343 5 353 317 318 328 288 255 251 246 250 241 238 203 241 196 185 193 203 212 213 216 213 208 199 208 199 191 201 194 185 184 185 180 183 182
19 24 2 3 3 14 15 29 26 5 16 350 17 12 5 4 8 357 246 234 233 224 225 234 192 191 208 210 216 222 222 220 214 206 214 202 200 200 193 187 189 184 187 185